Flag for France Weather past 2 weeks in Strasbourg, France

Now
54 °F

Passing clouds.


Feels Like: 53 °F
Forecast: 56 / 82 °F
Wind: 5 mph from North

Location: Strasbourg Airport

Current Time: Jul 31, 2015 at 8:09:10 AM

Latest Report: Jul 31, 2015 at 7:30 AM


Visibility: N/A

Pressure: 30.09 "Hg

Humidity: 77%

Dew point: 46 °F

Location of StrasbourgLocation

Historic Weather in Strasbourg — Graph

°F

Strasbourg temperature yesterday

Maximum temperature yesterday: 72 °F (at 3:00 PM)
Minimum temperature yesterday: 50 °F (at 1:30 AM)
Average temperature yesterday: 61 °F

Past Weeks' High & Low Weather Summary

 TemperatureHumidityPressure
High97 °F (Jul 17, 5:00 PM)94% (Jul 18, 5:30 AM)30.12 "Hg (Jul 18, 5:30 AM)
Low46 °F (Jul 31, 5:00 AM)25% (Jul 17, 7:00 PM)29.65 "Hg (Jul 24, 8:00 PM)
Average72 °F59%29.93 "Hg
* Reported Jul 16 7:00 AM — Jul 31 7:00 AM, Strasbourg, Weather by CustomWeather, © 2015

Note: Actual official high and low records may vary slightly from our data, if they occured in-between our weather recording intervals... More about our weather records

Advertising

Strasbourg weather history for previous 24 hours

 ConditionsComfort  
Time TempWeatherWind HumidityBarometerVisibility
7:00 AM
Fri, Jul 31
50 °FClear.2 mph82%30.09 "Hg10 mi
6:30 AM46 °FClear.3 mph87%30.09 "Hg10 mi
6:00 AM46 °FClear.2 mph87%30.09 "Hg10 mi
5:30 AM46 °FClear.2 mph87%30.09 "Hg10 mi
5:00 AM46 °FPassing clouds.5 mph87%30.09 "HgN/A
4:30 AM48 °FClear.2 mph82%30.09 "Hg10 mi
4:00 AM48 °FClear.1 mph82%30.09 "Hg10 mi
3:30 AM50 °FClear.2 mph76%30.09 "Hg10 mi
3:00 AM48 °FClear.1 mph82%30.09 "Hg10 mi
2:30 AM48 °FClear.2 mph87%30.09 "Hg10 mi
2:00 AM48 °FClear.1 mph87%30.09 "Hg10 mi
1:30 AM52 °FClear.2 mph77%30.09 "Hg10 mi
1:00 AM52 °FClear.3 mph77%30.09 "Hg10 mi
12:30 AM52 °FClear.2 mph72%30.09 "Hg10 mi
12:00 AM54 °FClear.7 mph72%30.09 "Hg10 mi
11:30 PM
Thu, Jul 30
57 °FClear.5 mph63%30.09 "Hg10 mi
11:00 PM57 °FClear.6 mph63%30.07 "Hg10 mi
10:30 PM59 °FClear.8 mph59%30.07 "Hg10 mi
10:00 PM61 °FSunny.8 mph55%30.07 "Hg10 mi
9:30 PM63 °FSunny.7 mph52%30.04 "Hg10 mi
9:00 PM64 °FSunny.10 mph49%30.04 "Hg10 mi
8:30 PM66 °FSunny.15 mph46%30.04 "Hg10 mi
8:00 PM72 °FPassing clouds.8 mph31%30.01 "HgN/A
7:30 PM72 °FPassing clouds.8 mph31%30.01 "HgN/A
7:00 PM72 °FPassing clouds.10 mph33%30.01 "HgN/A
6:30 PM72 °FPassing clouds.7 mph33%30.01 "HgN/A
6:00 PM72 °FPassing clouds.8 mph33%30.01 "HgN/A
5:30 PM70 °FSunny.5 mph38%30.01 "Hg10 mi
5:00 PM70 °FSunny.3 mph40%30.01 "Hg10 mi
4:30 PM70 °FSunny.2 mph40%30.01 "Hg10 mi
4:00 PM72 °FSunny.5 mph41%30.01 "Hg10 mi
3:30 PM72 °FPassing clouds.6 mph38%30.01 "HgN/A
3:00 PM72 °FPassing clouds.3 mph38%30.01 "HgN/A
2:30 PM70 °FBroken clouds.3 mph40%30.01 "HgN/A
2:00 PM70 °FPartly sunny.6 mph43%30.01 "HgN/A
1:30 PM66 °FMostly cloudy.7 mph46%30.01 "HgN/A
1:00 PM70 °FBroken clouds.7 mph43%30.01 "HgN/A
12:30 PM68 °FPassing clouds.7 mph43%30.04 "HgN/A
12:00 PM68 °FPassing clouds.6 mph46%30.04 "HgN/A
11:30 AM66 °FPassing clouds.10 mph46%30.04 "HgN/A
11:00 AM66 °FPassing clouds.7 mph46%30.04 "HgN/A
10:30 AM64 °FPassing clouds.5 mph52%30.04 "HgN/A
10:00 AM61 °FSunny.No wind63%30.04 "Hg10 mi
9:30 AM57 °FSunny.2 mph72%30.01 "Hg10 mi
9:00 AM55 °FPassing clouds.5 mph77%30.01 "HgN/A
8:30 AM54 °FSunny.5 mph82%30.01 "Hg10 mi
8:00 AM54 °FPassing clouds.6 mph82%30.01 "HgN/A
Weather by CustomWeather, © 2015

See weather overviewHow to use our weather pages